Location: *
(49.7115°N, 15.0136°E)
Time: 15:22:41
(UTC+00:00)

STARLINK-1044 - Pass Details

Date: 27 February 2020
Orbit: 548 x 551 km, 53.0° (Epoch: 28 March)

Event Time Altitude Azimuth Distance (km) Brightness Sun altitude
Rises 17:15:07 0° 244° (WSW) 2,709 8.7 -6.7°
Reaches altitude 10° 17:17:20 10° 244° (WSW) 1,818 7.6 -7.1°
Maximum altitude 17:21:29 86° 156° (SSE) 556 3.6 -7.8°
Drops below altitude 10° 17:25:38 10° 68° (ENE) 1,825 5.7 -8.4°
Enters shadow 17:25:41 10° 68° (ENE) 1,846 5.7 -8.4°
